Location: Caltech
(34.1382°N, 118.1253°W)
Time: 16:17:41
(UTC-07:00)

CZ-4B DEB - Visible Passes

Search period start: 26 August 2016 00:00
Search period end: 05 September 2016 00:00
Orbit: 841 x 863 km, 98.9° (Epoch: 26 August)

Date Brightness Start Highest point End Pass type
(mag) Time Alt. Az. Time Alt. Az. Time Alt. Az.
26 Aug 4.7 04:17:01 10° NNE 04:22:24 55° E 04:25:59 21° S visible
27 Aug 5.2 04:05:47 10° NNE 04:10:58 42° E 04:14:24 20° SSE visible
27 Aug 5.5 05:47:17 10° NNW 05:51:19 22° WNW 05:55:21 10° WSW visible
28 Aug 5.6 03:54:38 10° NE 03:59:31 33° E 04:02:48 18° SSE visible
28 Aug 5.2 05:35:31 10° NNW 05:40:02 27° WNW 05:44:33 10° SW visible
29 Aug 6.0 03:43:35 10° NE 03:48:04 25° E 03:51:12 16° SE visible
29 Aug 4.9 05:23:52 10° N 05:28:45 34° WNW 05:33:14 12° SW visible
30 Aug 6.4 03:32:41 10° NE 03:36:34 20° E 03:39:36 13° SE visible
30 Aug 4.6 05:12:16 10° N 05:17:25 44° WNW 05:21:38 15° SW visible
31 Aug 6.7 03:22:02 10° ENE 03:25:05 15° E 03:28:01 10° SE visible
31 Aug 4.3 05:00:45 10° N 05:06:05 57° WNW 05:10:02 18° SW visible
01 Sep 6.9 03:12:03 10° ENE 03:13:34 11° E 03:15:06 10° ESE visible
01 Sep 4.1 04:49:17 10° N 04:54:44 74° WNW 04:58:26 21° SSW visible
02 Sep 4.1 04:37:52 10° NNE 04:43:21 87° ESE 04:46:50 23° SSW visible
03 Sep 4.4 04:26:31 10° NNE 04:31:57 68° ESE 04:35:15 24° S visible
04 Sep 4.8 04:15:13 10° NNE 04:20:33 52° E 04:23:39 24° SSE visible
04 Sep 5.7 05:57:16 10° NNW 06:00:47 18° WNW 06:04:18 10° WSW visible
